SITE: BDASn,YEAR: 2007,,,,,,
2007date,time,pzhd (cm),gw temp (C),DWT (cm),WT elev (m),,
01/01/07,0:00,262.6,12.9,103.7,1372.484,,Depth to water table:
01/01/07,0:30,262.9,13.0,103.4,1372.487,,DWT = SCL - CH - h (all values in cm)
01/01/07,1:00,262.4,12.9,103.9,1372.482,,where
01/01/07,1:30,262.9,12.9,103.4,1372.487,,SCL = sensor cable length = 493.3 cm
01/01/07,2:00,262.9,12.9,103.4,1372.487,,CH = casing height of well = 127.0 cm
01/01/07,2:30,263.0,13.0,103.3,1372.488,,h = height of water above sensor (from pzhd column)
01/01/07,3:00,263.6,12.9,102.7,1372.494,,
01/01/07,3:30,262.7,12.9,103.6,1372.485,,WT elevation:
01/01/07,4:00,262.6,12.9,103.7,1372.484,,Sensor elev = 1369.858 m asl
01/01/07,4:30,262.2,13.0,104.1,1372.480,,WT elev = sensor elev + h (from pzhd column)
01/01/07,5:00,262.4,12.9,103.9,1372.482,,
01/01/07,5:30,262.5,12.9,103.8,1372.483,,
01/01/07,6:00,263.4,12.9,102.9,1372.492,,
01/01/07,6:30,262.8,12.9,103.5,1372.486,,Dates with missing data (# 0.5 hr data points): none.
01/01/07,7:00,263.2,13.0,103.1,1372.490,,
01/01/07,7:30,263.2,13.0,103.1,1372.490,,
01/01/07,8:00,262.9,12.9,103.4,1372.487,,Dates w/missing T data:
01/01/07,8:30,262.9,12.9,103.4,1372.487,,"3/20, 4/17, 6/27, 9/7, 10/3, 10/10, 10/14, "
01/01/07,9:00,262.6,12.9,103.7,1372.484,,"10/18, 11/26, 12/6, 12/25."
01/01/07,9:30,262.8,12.9,103.5,1372.486,,
01/01/07,10:00,262.7,12.9,103.6,1372.485,,
01/01/07,10:30,262.9,12.9,103.4,1372.487,,
01/01/07,11:00,262.9,13.0,103.4,1372.487,,
01/01/07,11:30,263.4,12.9,102.9,1372.492,,
01/01/07,12:00,263.6,12.9,102.7,1372.494,,
01/01/07,12:30,264.5,13.0,101.8,1372.503,,
01/01/07,13:00,265.3,12.9,101.0,1372.511,,
01/01/07,13:30,265.2,12.9,101.1,1372.510,,
01/01/07,14:00,265.1,12.9,101.2,1372.509,,
01/01/07,14:30,265.1,12.9,101.2,1372.509,,
01/01/07,15:00,265.6,12.9,100.7,1372.514,,
01/01/07,15:30,265.4,12.9,100.9,1372.512,,
01/01/07,16:00,265.8,12.9,100.5,1372.516,,
01/01/07,16:30,266.1,12.9,100.2,1372.519,,
01/01/07,17:00,266.6,13.0,99.7,1372.524,,
01/01/07,17:30,265.9,12.9,100.4,1372.517,,
01/01/07,18:00,265.6,13.0,100.7,1372.514,,
01/01/07,18:30,266.8,12.9,99.5,1372.526,,
01/01/07,19:00,266.1,12.9,100.2,1372.519,,
01/01/07,19:30,265.5,13.0,100.8,1372.513,,
01/01/07,20:00,265.2,12.9,101.1,1372.510,,
01/01/07,20:30,265.2,12.9,101.1,1372.510,,
01/01/07,21:00,265.1,12.9,101.2,1372.509,,
01/01/07,21:30,264.6,12.9,101.7,1372.504,,
01/01/07,22:00,264.8,12.9,101.5,1372.506,,
01/01/07,22:30,265.2,13.0,101.1,1372.510,,
01/01/07,23:00,264.7,12.9,101.6,1372.505,,
01/01/07,23:30,264.9,12.9,101.4,1372.507,,
01/02/07,0:00,264.6,12.9,101.7,1372.504,,
01/02/07,0:30,265.3,12.9,101.0,1372.511,,
01/02/07,1:00,264.3,12.9,102.0,1372.501,,
01/02/07,1:30,264.5,12.9,101.8,1372.503,,
01/02/07,2:00,265.1,13.0,101.2,1372.509,,
01/02/07,2:30,264.4,12.9,101.9,1372.502,,
01/02/07,3:00,264.7,12.9,101.6,1372.505,,
01/02/07,3:30,264.6,12.9,101.7,1372.504,,
01/02/07,4:00,264.5,13.0,101.8,1372.503,,
01/02/07,4:30,264.6,12.9,101.7,1372.504,,
01/02/07,5:00,264.6,12.9,101.7,1372.504,,
01/02/07,5:30,264.9,12.9,101.4,1372.507,,
01/02/07,6:00,264.9,12.9,101.4,1372.507,,
01/02/07,6:30,264.5,12.9,101.8,1372.503,,
01/02/07,7:00,265.5,12.9,100.8,1372.513,,
01/02/07,7:30,264.5,12.9,101.8,1372.503,,
01/02/07,8:00,265.2,12.9,101.1,1372.510,,
01/02/07,8:30,264.1,12.9,102.2,1372.499,,
01/02/07,9:00,264.2,12.9,102.1,1372.500,,
01/02/07,9:30,264.3,12.9,102.0,1372.501,,
01/02/07,10:00,263.9,12.9,102.4,1372.497,,
01/02/07,10:30,264.1,12.9,102.2,1372.499,,
01/02/07,11:00,264.0,12.9,102.3,1372.498,,
01/02/07,11:30,263.7,12.9,102.6,1372.495,,
01/02/07,12:00,263.8,12.9,102.5,1372.496,,
01/02/07,12:30,264.1,12.9,102.2,1372.499,,
01/02/07,13:00,264.9,12.9,101.4,1372.507,,
01/02/07,13:30,265.1,12.9,101.2,1372.509,,
01/02/07,14:00,265.6,13.0,100.7,1372.514,,
01/02/07,14:30,265.4,12.9,100.9,1372.512,,
01/02/07,15:00,266.7,12.9,99.6,1372.525,,
01/02/07,15:30,266.0,12.9,100.3,1372.518,,
01/02/07,16:00,265.8,12.9,100.5,1372.516,,
01/02/07,16:30,265.8,12.9,100.5,1372.516,,
01/02/07,17:00,266.1,12.9,100.2,1372.519,,
01/02/07,17:30,265.6,12.9,100.7,1372.514,,
01/02/07,18:00,266.0,12.9,100.3,1372.518,,
01/02/07,18:30,265.1,12.9,101.2,1372.509,,
01/02/07,19:00,265.0,12.9,101.3,1372.508,,
01/02/07,19:30,265.7,12.9,100.6,1372.515,,
01/02/07,20:00,265.5,12.9,100.8,1372.513,,
01/02/07,20:30,265.3,12.9,101.0,1372.511,,
01/02/07,21:00,265.1,12.9,101.2,1372.509,,
01/02/07,21:30,264.7,12.9,101.6,1372.505,,
01/02/07,22:00,264.7,12.9,101.6,1372.505,,
01/02/07,22:30,264.4,12.9,101.9,1372.502,,
01/02/07,23:00,265.3,12.9,101.0,1372.511,,
01/02/07,23:30,265.1,12.9,101.2,1372.509,,
01/03/07,0:00,265.3,12.9,101.0,1372.511,,
01/03/07,0:30,265.3,12.9,101.0,1372.511,,
01/03/07,1:00,265.1,12.9,101.2,1372.509,,
01/03/07,1:30,264.9,12.9,101.4,1372.507,,
01/03/07,2:00,264.9,12.9,101.4,1372.507,,
01/03/07,2:30,265.1,12.9,101.2,1372.509,,
01/03/07,3:00,264.7,12.9,101.6,1372.505,,
01/03/07,3:30,264.5,12.9,101.8,1372.503,,
01/03/07,4:00,264.0,12.9,102.3,1372.498,,
01/03/07,4:30,264.1,12.9,102.2,1372.499,,
01/03/07,5:00,264.8,12.9,101.5,1372.506,,
01/03/07,5:30,263.9,12.9,102.4,1372.497,,
01/03/07,6:00,264.5,12.9,101.8,1372.503,,
01/03/07,6:30,264.6,12.9,101.7,1372.504,,
01/03/07,7:00,264.1,12.9,102.2,1372.499,,
01/03/07,7:30,264.1,12.9,102.2,1372.499,,
01/03/07,8:00,264.1,12.9,102.2,1372.499,,
01/03/07,8:30,265.0,12.9,101.3,1372.508,,
01/03/07,9:00,264.2,12.9,102.1,1372.500,,
01/03/07,9:30,264.8,12.9,101.5,1372.506,,
01/03/07,10:00,264.6,12.9,101.7,1372.504,,
01/03/07,10:30,264.5,12.9,101.8,1372.503,,
01/03/07,11:00,264.6,12.9,101.7,1372.504,,
01/03/07,11:30,265.2,12.9,101.1,1372.510,,
01/03/07,12:00,265.4,12.9,100.9,1372.512,,
01/03/07,12:30,265.4,12.9,100.9,1372.512,,
01/03/07,13:00,265.6,12.9,100.7,1372.514,,
01/03/07,13:30,266.9,12.9,99.4,1372.527,,
01/03/07,14:00,267.2,12.9,99.1,1372.530,,
01/03/07,14:30,266.6,12.9,99.7,1372.524,,
01/03/07,15:00,267.2,12.9,99.1,1372.530,,
01/03/07,15:30,267.6,12.9,98.7,1372.534,,
01/03/07,16:00,267.0,12.9,99.3,1372.528,,
01/03/07,16:30,266.7,12.9,99.6,1372.525,,
01/03/07,17:00,266.3,12.9,100.0,1372.521,,
01/03/07,17:30,267.4,12.9,98.9,1372.532,,
01/03/07,18:00,266.1,12.9,100.2,1372.519,,
01/03/07,18:30,266.2,12.9,100.1,1372.520,,
01/03/07,19:00,267.1,12.9,99.2,1372.529,,
01/03/07,19:30,266.0,12.9,100.3,1372.518,,
01/03/07,20:00,266.1,12.9,100.2,1372.519,,
01/03/07,20:30,266.2,12.9,100.1,1372.520,,
01/03/07,21:00,265.8,12.9,100.5,1372.516,,
01/03/07,21:30,266.2,12.9,100.1,1372.520,,
01/03/07,22:00,266.6,12.9,99.7,1372.524,,
01/03/07,22:30,265.9,12.9,100.4,1372.517,,
01/03/07,23:00,265.7,12.9,100.6,1372.515,,
01/03/07,23:30,266.1,12.9,100.2,1372.519,,
01/04/07,0:00,266.6,12.9,99.7,1372.524,,
01/04/07,0:30,267.0,12.9,99.3,1372.528,,
01/04/07,1:00,266.9,12.9,99.4,1372.527,,
01/04/07,1:30,266.1,12.9,100.2,1372.519,,
01/04/07,2:00,266.2,12.9,100.1,1372.520,,
01/04/07,2:30,265.8,12.9,100.5,1372.516,,
01/04/07,3:00,266.1,12.9,100.2,1372.519,,
01/04/07,3:30,266.0,12.9,100.3,1372.518,,
01/04/07,4:00,266.1,12.9,100.2,1372.519,,
01/04/07,4:30,265.2,12.9,101.1,1372.510,,
01/04/07,5:00,265.4,12.9,100.9,1372.512,,
01/04/07,5:30,265.6,12.9,100.7,1372.514,,
01/04/07,6:00,265.9,12.9,100.4,1372.517,,
01/04/07,6:30,265.8,12.9,100.5,1372.516,,
01/04/07,7:00,265.5,12.9,100.8,1372.513,,
01/04/07,7:30,266.1,12.9,100.2,1372.519,,
01/04/07,8:00,265.5,12.9,100.8,1372.513,,
01/04/07,8:30,265.3,12.9,101.0,1372.511,,
01/04/07,9:00,264.3,12.9,102.0,1372.501,,
01/04/07,9:30,264.5,12.9,101.8,1372.503,,
01/04/07,10:00,264.9,12.9,101.4,1372.507,,
01/04/07,10:30,265.2,12.9,101.1,1372.510,,
01/04/07,11:00,264.7,12.9,101.6,1372.505,,
01/04/07,11:30,265.6,12.9,100.7,1372.514,,
01/04/07,12:00,265.1,12.9,101.2,1372.509,,
01/04/07,12:30,267.2,12.9,99.1,1372.530,,
01/04/07,13:00,267.4,12.9,98.9,1372.532,,
01/04/07,13:30,267.1,12.9,99.2,1372.529,,
01/04/07,14:00,267.3,12.9,99.0,1372.531,,
01/04/07,14:30,266.9,12.9,99.4,1372.527,,
01/04/07,15:00,267.2,12.9,99.1,1372.530,,
01/04/07,15:30,267.2,12.9,99.1,1372.530,,
01/04/07,16:00,267.0,12.9,99.3,1372.528,,
01/04/07,16:30,266.8,12.9,99.5,1372.526,,
01/04/07,17:00,267.6,12.9,98.7,1372.534,,
01/04/07,17:30,267.6,12.9,98.7,1372.534,,
01/04/07,18:00,268.0,12.9,98.3,1372.538,,
01/04/07,18:30,267.8,12.9,98.5,1372.536,,
01/04/07,19:00,267.9,12.9,98.4,1372.537,,
01/04/07,19:30,267.2,12.9,99.1,1372.530,,
01/04/07,20:00,267.1,12.9,99.2,1372.529,,
01/04/07,20:30,267.2,12.9,99.1,1372.530,,
01/04/07,21:00,267.3,12.9,99.0,1372.531,,
01/04/07,21:30,266.9,12.9,99.4,1372.527,,
01/04/07,22:00,267.0,12.9,99.3,1372.528,,
01/04/07,22:30,266.9,12.9,99.4,1372.527,,
01/04/07,23:00,267.2,12.9,99.1,1372.530,,
01/04/07,23:30,267.1,12.9,99.2,1372.529,,
01/05/07,0:00,266.9,12.9,99.4,1372.527,,
01/05/07,0:30,267.4,12.9,98.9,1372.532,,
01/05/07,1:00,267.5,12.9,98.8,1372.533,,
01/05/07,1:30,267.6,12.9,98.7,1372.534,,
01/05/07,2:00,268.1,12.9,98.2,1372.539,,
01/05/07,2:30,267.6,12.9,98.7,1372.534,,
01/05/07,3:00,267.7,12.9,98.6,1372.535,,
01/05/07,3:30,267.6,12.9,98.7,1372.534,,
01/05/07,4:00,267.6,12.9,98.7,1372.534,,
01/05/07,4:30,267.2,12.9,99.1,1372.530,,
01/05/07,5:00,268.1,12.9,98.2,1372.539,,
01/05/07,5:30,267.7,12.9,98.6,1372.535,,
01/05/07,6:00,267.1,12.9,99.2,1372.529,,
01/05/07,6:30,266.9,12.9,99.4,1372.527,,
01/05/07,7:00,266.9,12.9,99.4,1372.527,,
01/05/07,7:30,266.6,12.9,99.7,1372.524,,
01/05/07,8:00,267.1,12.9,99.2,1372.529,,
01/05/07,8:30,266.4,12.9,99.9,1372.522,,
01/05/07,9:00,266.4,12.9,99.9,1372.522,,
01/05/07,9:30,266.3,12.9,100.0,1372.521,,
01/05/07,10:00,266.2,12.9,100.1,1372.520,,
01/05/07,10:30,266.5,12.9,99.8,1372.523,,
01/05/07,11:00,266.5,12.9,99.8,1372.523,,
01/05/07,11:30,266.5,12.9,99.8,1372.523,,
01/05/07,12:00,267.1,12.9,99.2,1372.529,,
01/05/07,12:30,267.1,12.9,99.2,1372.529,,
01/05/07,13:00,267.7,12.9,98.6,1372.535,,
01/05/07,13:30,267.7,12.9,98.6,1372.535,,
01/05/07,14:00,267.9,12.9,98.4,1372.537,,
01/05/07,14:30,267.8,12.9,98.5,1372.536,,
01/05/07,15:00,267.8,12.9,98.5,1372.536,,
01/05/07,15:30,267.4,12.9,98.9,1372.532,,
01/05/07,16:00,267.9,12.9,98.4,1372.537,,
01/05/07,16:30,267.8,12.9,98.5,1372.536,,
01/05/07,17:00,267.8,12.9,98.5,1372.536,,
01/05/07,17:30,267.2,12.9,99.1,1372.530,,
01/05/07,18:00,266.7,12.9,99.6,1372.525,,
01/05/07,18:30,266.5,12.9,99.8,1372.523,,
01/05/07,19:00,266.7,12.9,99.6,1372.525,,
01/05/07,19:30,266.3,12.9,100.0,1372.521,,
01/05/07,20:00,266.2,12.9,100.1,1372.520,,
01/05/07,20:30,266.1,12.9,100.2,1372.519,,
01/05/07,21:00,265.0,12.9,101.3,1372.508,,
01/05/07,21:30,264.8,12.9,101.5,1372.506,,
01/05/07,22:00,264.8,12.9,101.5,1372.506,,
01/05/07,22:30,264.6,12.9,101.7,1372.504,,
01/05/07,23:00,264.0,12.9,102.3,1372.498,,
01/05/07,23:30,264.5,12.8,101.8,1372.503,,
01/06/07,0:00,265.0,12.9,101.3,1372.508,,
01/06/07,0:30,263.9,12.9,102.4,1372.497,,
01/06/07,1:00,264.3,12.9,102.0,1372.501,,
01/06/07,1:30,263.9,12.9,102.4,1372.497,,
01/06/07,2:00,263.6,12.9,102.7,1372.494,,
01/06/07,2:30,264.3,12.9,102.0,1372.501,,
01/06/07,3:00,263.1,12.8,103.2,1372.489,,
01/06/07,3:30,263.1,12.9,103.2,1372.489,,
01/06/07,4:00,263.8,12.9,102.5,1372.496,,
01/06/07,4:30,262.9,12.8,103.4,1372.487,,
01/06/07,5:00,263.4,12.9,102.9,1372.492,,
01/06/07,5:30,264.0,12.9,102.3,1372.498,,
01/06/07,6:00,263.2,12.9,103.1,1372.490,,
01/06/07,6:30,263.7,12.9,102.6,1372.495,,
01/06/07,7:00,263.2,12.9,103.1,1372.490,,
01/06/07,7:30,263.3,12.9,103.0,1372.491,,
01/06/07,8:00,263.7,12.8,102.6,1372.495,,
01/06/07,8:30,263.3,12.9,103.0,1372.491,,
01/06/07,9:00,263.9,12.9,102.4,1372.497,,
01/06/07,9:30,263.6,12.8,102.7,1372.494,,
01/06/07,10:00,264.1,12.9,102.2,1372.499,,
01/06/07,10:30,263.2,12.8,103.1,1372.490,,
01/06/07,11:00,264.1,12.9,102.2,1372.499,,
01/06/07,11:30,263.2,12.8,103.1,1372.490,,
01/06/07,12:00,263.2,12.9,103.1,1372.490,,
01/06/07,12:30,263.5,12.9,102.8,1372.493,,
01/06/07,13:00,264.1,12.8,102.2,1372.499,,
01/06/07,13:30,264.4,12.8,101.9,1372.502,,
01/06/07,14:00,264.8,12.9,101.5,1372.506,,
01/06/07,14:30,263.8,12.9,102.5,1372.496,,
01/06/07,15:00,264.0,12.8,102.3,1372.498,,
01/06/07,15:30,263.6,12.8,102.7,1372.494,,
01/06/07,16:00,264.9,12.8,101.4,1372.507,,
01/06/07,16:30,264.6,12.8,101.7,1372.504,,
01/06/07,17:00,264.8,12.8,101.5,1372.506,,
01/06/07,17:30,265.1,12.8,101.2,1372.509,,
01/06/07,18:00,265.4,12.8,100.9,1372.512,,
01/06/07,18:30,265.7,12.8,100.6,1372.515,,
01/06/07,19:00,266.9,12.8,99.4,1372.527,,
01/06/07,19:30,267.7,12.9,98.6,1372.535,,
01/06/07,20:00,268.6,12.9,97.7,1372.544,,
01/06/07,20:30,268.5,12.8,97.8,1372.543,,
01/06/07,21:00,267.7,12.8,98.6,1372.535,,
01/06/07,21:30,267.9,12.8,98.4,1372.537,,
01/06/07,22:00,269.3,12.8,97.0,1372.551,,
01/06/07,22:30,268.7,12.8,97.6,1372.545,,
01/06/07,23:00,268.8,12.8,97.5,1372.546,,
01/06/07,23:30,268.8,12.8,97.5,1372.546,,
01/07/07,0:00,268.5,12.8,97.8,1372.543,,
01/07/07,0:30,269.2,12.8,97.1,1372.550,,
01/07/07,1:00,269.1,12.8,97.2,1372.549,,
01/07/07,1:30,269.5,12.8,96.8,1372.553,,
01/07/07,2:00,269.1,12.8,97.2,1372.549,,
01/07/07,2:30,269.9,12.8,96.4,1372.557,,
01/07/07,3:00,269.4,12.8,96.9,1372.552,,
01/07/07,3:30,270.0,12.8,96.3,1372.558,,
01/07/07,4:00,269.7,12.8,96.6,1372.555,,
01/07/07,4:30,270.1,12.8,96.2,1372.559,,
01/07/07,5:00,269.9,12.8,96.4,1372.557,,
01/07/07,5:30,270.7,12.8,95.6,1372.565,,
01/07/07,6:00,270.1,12.8,96.2,1372.559,,
01/07/07,6:30,269.8,12.8,96.5,1372.556,,
01/07/07,7:00,268.6,12.8,97.7,1372.544,,
01/07/07,7:30,268.2,12.8,98.1,1372.540,,
01/07/07,8:00,268.7,12.8,97.6,1372.545,,
01/07/07,8:30,270.0,12.8,96.3,1372.558,,
01/07/07,9:00,268.8,12.8,97.5,1372.546,,
01/07/07,9:30,268.8,12.8,97.5,1372.546,,
01/07/07,10:00,268.3,12.8,98.0,1372.541,,
01/07/07,10:30,267.8,12.8,98.5,1372.536,,
01/07/07,11:00,267.9,12.8,98.4,1372.537,,
01/07/07,11:30,266.8,12.8,99.5,1372.526,,
01/07/07,12:00,263.3,12.8,103.0,1372.491,,
01/07/07,12:30,263.1,12.8,103.2,1372.489,,
01/07/07,13:00,262.5,12.8,103.8,1372.483,,
01/07/07,13:30,263.1,12.8,103.2,1372.489,,
01/07/07,14:00,262.7,12.8,103.6,1372.485,,
01/07/07,14:30,263.1,12.8,103.2,1372.489,,
01/07/07,15:00,263.3,12.8,103.0,1372.491,,
01/07/07,15:30,263.4,12.8,102.9,1372.492,,
01/07/07,16:00,264.1,12.8,102.2,1372.499,,
01/07/07,16:30,264.0,12.8,102.3,1372.498,,
01/07/07,17:00,264.0,12.8,102.3,1372.498,,
01/07/07,17:30,264.0,12.8,102.3,1372.498,,
01/07/07,18:00,264.5,12.8,101.8,1372.503,,
01/07/07,18:30,262.8,12.8,103.5,1372.486,,
01/07/07,19:00,264.9,12.8,101.4,1372.507,,
01/07/07,19:30,263.5,12.8,102.8,1372.493,,
01/07/07,20:00,263.3,12.8,103.0,1372.491,,
01/07/07,20:30,263.6,12.8,102.7,1372.494,,
01/07/07,21:00,264.1,12.8,102.2,1372.499,,
01/07/07,21:30,263.4,12.8,102.9,1372.492,,
01/07/07,22:00,263.3,12.8,103.0,1372.491,,
01/07/07,22:30,263.1,12.8,103.2,1372.489,,
01/07/07,23:00,262.4,12.8,103.9,1372.482,,
01/07/07,23:30,263.2,12.8,103.1,1372.490,,
01/08/07,0:00,263.3,12.8,103.0,1372.491,,
01/08/07,0:30,264.3,12.8,102.0,1372.501,,
01/08/07,1:00,263.5,12.8,102.8,1372.493,,
01/08/07,1:30,263.6,12.8,102.7,1372.494,,
01/08/07,2:00,264.0,12.8,102.3,1372.498,,
01/08/07,2:30,263.2,12.8,103.1,1372.490,,
01/08/07,3:00,263.0,12.8,103.3,1372.488,,
01/08/07,3:30,262.4,12.8,103.9,1372.482,,
01/08/07,4:00,263.0,12.8,103.3,1372.488,,
01/08/07,4:30,263.1,12.8,103.2,1372.489,,
01/08/07,5:00,263.1,12.8,103.2,1372.489,,
01/08/07,5:30,263.3,12.8,103.0,1372.491,,
01/08/07,6:00,262.8,12.8,103.5,1372.486,,
01/08/07,6:30,263.0,12.8,103.3,1372.488,,
01/08/07,7:00,263.2,12.8,103.1,1372.490,,
01/08/07,7:30,263.4,12.8,102.9,1372.492,,
01/08/07,8:00,262.8,12.7,103.5,1372.486,,
01/08/07,8:30,263.0,12.7,103.3,1372.488,,
01/08/07,9:00,262.8,12.7,103.5,1372.486,,
01/08/07,9:30,262.6,12.7,103.7,1372.484,,
01/08/07,10:00,262.5,12.7,103.8,1372.483,,
01/08/07,10:30,262.2,12.7,104.1,1372.480,,
01/08/07,11:00,262.5,12.7,103.8,1372.483,,
01/08/07,11:30,263.1,12.7,103.2,1372.489,,
01/08/07,12:00,263.5,12.7,102.8,1372.493,,
01/08/07,12:30,264.6,12.7,101.7,1372.504,,
01/08/07,13:00,264.4,12.7,101.9,1372.502,,
01/08/07,13:30,265.1,12.7,101.2,1372.509,,
01/08/07,14:00,264.9,12.7,101.4,1372.507,,
01/08/07,14:30,265.1,12.7,101.2,1372.509,,
01/08/07,15:00,266.2,12.7,100.1,1372.520,,
01/08/07,15:30,265.8,12.7,100.5,1372.516,,
01/08/07,16:00,266.0,12.7,100.3,1372.518,,
01/08/07,16:30,265.7,12.7,100.6,1372.515,,
01/08/07,17:00,266.1,12.7,100.2,1372.519,,
01/08/07,17:30,265.7,12.7,100.6,1372.515,,
01/08/07,18:00,265.6,12.7,100.7,1372.514,,
01/08/07,18:30,265.9,12.7,100.4,1372.517,,
01/08/07,19:00,265.6,12.7,100.7,1372.514,,
01/08/07,19:30,265.3,12.7,101.0,1372.511,,
01/08/07,20:00,264.4,12.6,101.9,1372.502,,
01/08/07,20:30,265.1,12.6,101.2,1372.509,,
01/08/07,21:00,264.7,12.7,101.6,1372.505,,
01/08/07,21:30,264.6,12.7,101.7,1372.504,,
01/08/07,22:00,265.0,12.6,101.3,1372.508,,
01/08/07,22:30,264.9,12.6,101.4,1372.507,,
01/08/07,23:00,264.6,12.6,101.7,1372.504,,
01/08/07,23:30,264.8,12.6,101.5,1372.506,,
01/09/07,0:00,264.8,12.6,101.5,1372.506,,
01/09/07,0:30,264.6,12.6,101.7,1372.504,,
01/09/07,1:00,264.5,12.6,101.8,1372.503,,
01/09/07,1:30,264.6,12.6,101.7,1372.504,,
01/09/07,2:00,265.1,12.6,101.2,1372.509,,
01/09/07,2:30,264.7,12.6,101.6,1372.505,,
01/09/07,3:00,265.1,12.6,101.2,1372.509,,
01/09/07,3:30,264.7,12.6,101.6,1372.505,,
01/09/07,4:00,265.2,12.6,101.1,1372.510,,
01/09/07,4:30,265.1,12.6,101.2,1372.509,,
01/09/07,5:00,265.1,12.6,101.2,1372.509,,
01/09/07,5:30,264.6,12.6,101.7,1372.504,,
01/09/07,6:00,264.7,12.6,101.6,1372.505,,
01/09/07,6:30,264.3,12.5,102.0,1372.501,,
01/09/07,7:00,264.3,12.6,102.0,1372.501,,
01/09/07,7:30,264.1,12.5,102.2,1372.499,,
01/09/07,8:00,264.1,12.5,102.2,1372.499,,
01/09/07,8:30,264.0,12.6,102.3,1372.498,,
01/09/07,9:00,264.1,12.6,102.2,1372.499,,
01/09/07,9:30,263.3,12.6,103.0,1372.491,,
01/09/07,10:00,263.6,12.6,102.7,1372.494,,
01/09/07,10:30,263.9,12.5,102.4,1372.497,,
01/09/07,11:00,263.8,12.5,102.5,1372.496,,
01/09/07,11:30,264.8,12.5,101.5,1372.506,,
01/09/07,12:00,264.3,12.6,102.0,1372.501,,
01/09/07,12:30,264.9,12.6,101.4,1372.507,,
01/09/07,13:00,265.1,12.5,101.2,1372.509,,
01/09/07,13:30,265.2,12.5,101.1,1372.510,,
01/09/07,14:00,265.6,12.6,100.7,1372.514,,
01/09/07,14:30,265.6,12.5,100.7,1372.514,,
01/09/07,15:00,267.0,12.5,99.3,1372.528,,
01/09/07,15:30,266.1,12.5,100.2,1372.519,,
01/09/07,16:00,266.8,12.5,99.5,1372.526,,
01/09/07,16:30,267.4,12.5,98.9,1372.532,,
01/09/07,17:00,266.8,12.5,99.5,1372.526,,
01/09/07,17:30,266.7,12.5,99.6,1372.525,,
01/09/07,18:00,266.9,12.5,99.4,1372.527,,
01/09/07,18:30,266.8,12.5,99.5,1372.526,,
01/09/07,19:00,267.7,12.5,98.6,1372.535,,
01/09/07,19:30,267.6,12.5,98.7,1372.534,,
01/09/07,20:00,267.2,12.5,99.1,1372.530,,
01/09/07,20:30,267.2,12.5,99.1,1372.530,,
01/09/07,21:00,266.6,12.5,99.7,1372.524,,
01/09/07,21:30,267.2,12.5,99.1,1372.530,,
01/09/07,22:00,267.3,12.5,99.0,1372.531,,
01/09/07,22:30,267.3,12.5,99.0,1372.531,,
01/09/07,23:00,267.3,12.5,99.0,1372.531,,
01/09/07,23:30,267.5,12.5,98.8,1372.533,,
01/10/07,0:00,267.0,12.5,99.3,1372.528,,
01/10/07,0:30,266.7,12.5,99.6,1372.525,,
01/10/07,1:00,267.7,12.5,98.6,1372.535,,
01/10/07,1:30,267.8,12.5,98.5,1372.536,,
01/10/07,2:00,266.6,12.5,99.7,1372.524,,
01/10/07,2:30,266.7,12.5,99.6,1372.525,,
01/10/07,3:00,266.6,12.5,99.7,1372.524,,
01/10/07,3:30,266.6,12.5,99.7,1372.524,,
01/10/07,4:00,266.4,12.5,99.9,1372.522,,
01/10/07,4:30,266.7,12.5,99.6,1372.525,,
01/10/07,5:00,267.2,12.5,99.1,1372.530,,
01/10/07,5:30,267.0,12.5,99.3,1372.528,,
01/10/07,6:00,265.8,12.5,100.5,1372.516,,
01/10/07,6:30,267.3,12.5,99.0,1372.531,,
01/10/07,7:00,266.5,12.5,99.8,1372.523,,
01/10/07,7:30,265.8,12.5,100.5,1372.516,,
01/10/07,8:00,267.2,12.5,99.1,1372.530,,
01/10/07,8:30,266.6,12.5,99.7,1372.524,,
01/10/07,9:00,267.1,12.5,99.2,1372.529,,
01/10/07,9:30,267.0,12.5,99.3,1372.528,,
01/10/07,10:00,266.1,12.5,100.2,1372.519,,
01/10/07,10:30,266.0,12.5,100.3,1372.518,,
01/10/07,11:00,266.9,12.5,99.4,1372.527,,
01/10/07,11:30,267.6,12.5,98.7,1372.534,,
01/10/07,12:00,267.6,12.5,98.7,1372.534,,
01/10/07,12:30,267.8,12.5,98.5,1372.536,,
01/10/07,13:00,268.9,12.5,97.4,1372.547,,
01/10/07,13:30,269.3,12.5,97.0,1372.551,,
01/10/07,14:00,270.2,12.5,96.1,1372.560,,
01/10/07,14:30,269.9,12.5,96.4,1372.557,,
01/10/07,15:00,269.8,12.5,96.5,1372.556,,
01/10/07,15:30,269.7,12.5,96.6,1372.555,,
01/10/07,16:00,269.3,12.5,97.0,1372.551,,
01/10/07,16:30,269.4,12.5,96.9,1372.552,,
01/10/07,17:00,268.8,12.5,97.5,1372.546,,
01/10/07,17:30,269.3,12.5,97.0,1372.551,,
01/10/07,18:00,269.5,12.5,96.8,1372.553,,
01/10/07,18:30,268.8,12.5,97.5,1372.546,,
01/10/07,19:00,269.2,12.5,97.1,1372.550,,
01/10/07,19:30,269.6,12.5,96.7,1372.554,,
01/10/07,20:00,268.7,12.5,97.6,1372.545,,
01/10/07,20:30,268.8,12.5,97.5,1372.546,,
01/10/07,21:00,268.1,12.5,98.2,1372.539,,
01/10/07,21:30,268.5,12.5,97.8,1372.543,,
01/10/07,22:00,269.3,12.5,97.0,1372.551,,
01/10/07,22:30,268.2,12.5,98.1,1372.540,,
01/10/07,23:00,268.3,12.5,98.0,1372.541,,
01/10/07,23:30,268.1,12.5,98.2,1372.539,,
01/11/07,0:00,268.1,12.5,98.2,1372.539,,
01/11/07,0:30,268.0,12.5,98.3,1372.538,,
01/11/07,1:00,268.2,12.5,98.1,1372.540,,
01/11/07,1:30,268.3,12.5,98.0,1372.541,,
01/11/07,2:00,268.0,12.5,98.3,1372.538,,
01/11/07,2:30,268.4,12.5,97.9,1372.542,,
01/11/07,3:00,268.7,12.5,97.6,1372.545,,
01/11/07,3:30,268.6,12.5,97.7,1372.544,,
01/11/07,4:00,268.9,12.5,97.4,1372.547,,
01/11/07,4:30,268.7,12.4,97.6,1372.545,,
01/11/07,5:00,268.1,12.5,98.2,1372.539,,
01/11/07,5:30,268.2,12.5,98.1,1372.540,,
01/11/07,6:00,268.7,12.4,97.6,1372.545,,
01/11/07,6:30,267.7,12.4,98.6,1372.535,,
01/11/07,7:00,269.0,12.5,97.3,1372.548,,
01/11/07,7:30,268.7,12.4,97.6,1372.545,,
01/11/07,8:00,268.1,12.5,98.2,1372.539,,
01/11/07,8:30,268.0,12.5,98.3,1372.538,,
01/11/07,9:00,268.2,12.5,98.1,1372.540,,
01/11/07,9:30,268.1,12.5,98.2,1372.539,,
01/11/07,10:00,267.5,12.5,98.8,1372.533,,
01/11/07,10:30,267.1,12.5,99.2,1372.529,,
01/11/07,11:00,266.7,12.4,99.6,1372.525,,
01/11/07,11:30,267.0,12.4,99.3,1372.528,,
01/11/07,12:00,266.8,12.4,99.5,1372.526,,
01/11/07,12:30,266.8,12.5,99.5,1372.526,,
01/11/07,13:00,267.2,12.4,99.1,1372.530,,
01/11/07,13:30,267.6,12.4,98.7,1372.534,,
01/11/07,14:00,268.2,12.4,98.1,1372.540,,
01/11/07,14:30,268.2,12.5,98.1,1372.540,,
01/11/07,15:00,267.7,12.4,98.6,1372.535,,
01/11/07,15:30,268.2,12.5,98.1,1372.540,,
01/11/07,16:00,268.4,12.4,97.9,1372.542,,
01/11/07,16:30,267.7,12.5,98.6,1372.535,,
01/11/07,17:00,267.7,12.5,98.6,1372.535,,
01/11/07,17:30,267.5,12.4,98.8,1372.533,,
01/11/07,18:00,267.8,12.4,98.5,1372.536,,
01/11/07,18:30,267.4,12.4,98.9,1372.532,,
01/11/07,19:00,268.0,12.4,98.3,1372.538,,
01/11/07,19:30,267.3,12.4,99.0,1372.531,,
01/11/07,20:00,266.7,12.5,99.6,1372.525,,
01/11/07,20:30,267.2,12.5,99.1,1372.530,,
01/11/07,21:00,267.1,12.4,99.2,1372.529,,
01/11/07,21:30,266.8,12.5,99.5,1372.526,,
01/11/07,22:00,266.9,12.4,99.4,1372.527,,
01/11/07,22:30,266.5,12.4,99.8,1372.523,,
01/11/07,23:00,266.5,12.4,99.8,1372.523,,
01/11/07,23:30,266.2,12.4,100.1,1372.520,,
01/12/07,0:00,265.7,12.4,100.6,1372.515,,
01/12/07,0:30,266.2,12.4,100.1,1372.520,,
01/12/07,1:00,266.5,12.4,99.8,1372.523,,
01/12/07,1:30,267.0,12.5,99.3,1372.528,,
01/12/07,2:00,267.3,12.4,99.0,1372.531,,
01/12/07,2:30,267.2,12.4,99.1,1372.530,,
01/12/07,3:00,267.2,12.4,99.1,1372.530,,
01/12/07,3:30,267.3,12.4,99.0,1372.531,,
01/12/07,4:00,266.8,12.4,99.5,1372.526,,
01/12/07,4:30,266.6,12.5,99.7,1372.524,,
01/12/07,5:00,267.1,12.4,99.2,1372.529,,
01/12/07,5:30,266.5,12.4,99.8,1372.523,,
01/12/07,6:00,267.2,12.4,99.1,1372.530,,
01/12/07,6:30,266.9,12.4,99.4,1372.527,,
01/12/07,7:00,266.2,12.4,100.1,1372.520,,
01/12/07,7:30,265.8,12.4,100.5,1372.516,,